Connecta IOT-11

operational
NORAD ID: 64557 Int'l Des: 2025-135 Owner: PLNSST Country: TR
LEOCIRCULARRETROGRADESSO

About Connecta IOT-11

Description loading...

Live Position

Loading 3D Globe...

Upcoming Passes

Altitude History

Altitude vs Time

uPlot chart will show altitude changes over time

Two-Line Element Set

1 64557U 25135AF 26061.57038213 .00005301 00000-0 24312-3 0 9991
2 64557 97.4588 177.8900 0002122 59.3152 300.8293 15.20868517 38665
Epoch: Mar 2, 2026 • Age: 28 hours

Current Status

Altitude 508.7 km
Velocity 7.61 km/s
Sub-Earth Point -14.13°S, 38.17°W
Launch Date Jun 23, 2025
Age 0.6 years
Type other

Technical Details

Classification Payload
Mass 10.00 kg
Dry Mass 10.00 kg
Total Mass 10.00 kg
Length 0.30 m
Diameter 0.20 m
Span 0.30 m
Shape Box
Manufacturer PLNSST
Bus Type Cubesat 6U
Phase Status In Orbit
Owner/State PLNSST/TR

Large Constellations

Loading constellations...